Tracking 18840 objects as of 19-November-2017
HD Live streaming from Space Station
objects crossing your sky now

GONETS D1 4

Track GONETS D1 4 now!
10-day predictions
GONETS D1 4 is classified as:


NORAD ID: 24728
Int'l Code: 1997-006D
Perigee: 1,407.2 km
Apogee: 1,421.3 km
Inclination: 82.6 °
Period: 113.9 minutes
Semi major axis: 7785 km
RCS: 1.0104 m2 (large)
Launch date: February 14, 1997
Source: Commonwealth of Independent States (former USSR) (CIS)
Launch site: PLESETSK MISSILE AND SPACE COMPLEX (PKMTR)
aabbcc
Your satellite tracking list
Your tracking list is empty




NASA's NSSDC Master Catalog

Two Line Element Set (TLE):
1 24728U 97006D   17322.41983928 +.00000025 +00000-0 +78846-4 0  9998
2 24728 082.6061 074.0101 0009069 097.2304 262.9813 12.63846047957700
Source of the keplerian elements: AFSPC